Location: Girdwood
(60.9430°N, 149.1660°W)
Time: 03:43:02
(UTC-08:00)

Iridium 86 - Visible Passes

Search period start: 01 November 2014 00:00
Search period end: 10 November 2014 23:00
Orbit: 776 x 779 km, 86.4° (Epoch: 31 October)

Date Brightness Start Highest point End Pass type
(mag) Time Alt. Az. Time Alt. Az. Time Alt. Az.
01 Nov 8.4 00:51:49 11° NNE 00:51:49 11° NNE 00:52:01 10° NNE visible
01 Nov 8.3 02:32:18 13° N 02:32:18 13° N 02:32:57 10° N visible
02 Nov 8.4 01:58:56 13° N 01:58:56 13° N 01:59:26 10° N visible
02 Nov 8.3 02:39:24 11° NNW 02:39:24 11° NNW 02:39:40 10° NNW visible
03 Nov 8.4 00:25:33 12° N 00:25:33 12° N 00:25:51 10° N visible
03 Nov 8.3 02:06:01 12° N 02:06:01 12° N 02:06:23 10° N visible
03 Nov 8.5 23:52:10 10° NNE 23:52:10 10° NNE 23:52:12 10° NNE visible
04 Nov 8.4 01:32:39 12° N 01:32:39 12° N 01:32:59 10° N visible
05 Nov 8.5 00:59:16 11° N 00:59:16 11° N 00:59:30 10° N visible
06 Nov 8.5 00:25:53 10° N 00:25:53 10° N 00:25:57 10° N visible
07 Nov 8.5 01:32:58 10° N 01:32:58 10° N 01:32:58 10° N visible
